Location: *
(37.5724°S, 58.0067°E)
Time: 10:40:09
(UTC+00:00)

Cosmos 1933 Rocket - Pass Details

Date: 26 September 2020
Orbit: 606 x 631 km, 82.5° (Epoch: 29 October)

Event Time Altitude Azimuth Distance (km) Brightness Sun altitude
Exits shadow 23:44:32 44° 198° (SSW) 863 4.2 -24.8°
Drops below altitude 10° 23:47:44 10° 179° (S) 2,014 6.5 -24.3°
Sets 23:50:01 0° 176° (S) 2,933 7.4 -23.8°
